GW6448 Weather Reports


time (UTC)temp
F
wind
direction
speed
knots
gust
knots
rain 1hr
in
rain 24hr
in
rain mn
in
humidity
%
barometer
mb
20260510153510 78 269 2.6 8.7 0.00 0.00 0.00 41 1014.9
20260510153021 78 297 1.7 7.0 0.00 0.00 0.00 41 1014.8
20260510152513 78 104 1.7 6.1 0.00 0.00 0.00 40 1014.8
20260510152011 77 175 2.6 6.1 0.00 0.00 0.00 42 1014.8
20260510151516 77 198 1.7 7.8 0.00 0.00 0.00 43 1014.8
20260510151008 76 282 4.3 7.8 0.00 0.00 0.00 43 1014.8
20260510150506 76 285 2.6 7.8 0.00 0.00 0.00 45 1014.7
20260510150017 76 310 0.9 7.8 0.00 0.00 0.00 47 1014.7
20260510145512 75 283 3.5 7.8 0.00 0.00 0.00 45 1014.7
20260510145007 76 294 4.3 7.8 0.00 0.00 0.00 43 1014.6
20260510144521 76 263 1.7 5.2 0.00 0.00 0.00 46 1014.6
20260510144010 76 284 0.9 5.2 0.00 0.00 0.00 46 1014.5
20260510143510 75 249 0.9 5.2 0.00 0.00 0.00 48 1014.5
20260510143018 74 273 2.6 7.8 0.00 0.00 0.00 47 1014.5
20260510142508 74 253 3.5 7.8 0.00 0.00 0.00 49 1014.4
20260510142015 73 267 0.9 6.1 0.00 0.00 0.00 51 1014.4
20260510141520 73 233 3.5 7.0 0.00 0.00 0.00 51 1014.4
20260510141011 73 240 0.9 7.0 0.00 0.00 0.00 52 1014.3
20260510140507 72 273 2.6 7.0 0.00 0.00 0.00 50 1014.4
20260510140022 72 289 2.6 7.0 0.00 0.00 0.00 50 1014.4
20260510135507 72 256 2.6 6.1 0.00 0.00 0.00 52 1014.4
20260510135004 72 288 1.7 6.1 0.00 0.00 0.00 49 1014.3
20260510134520 72 296 1.7 3.5 0.00 0.00 0.00 52 1014.4
20260510134006 72 292 1.7 2.6 0.00 0.00 0.00 53 1014.3
20260510133507 71 238 1.7 2.6 0.00 0.00 0.00 56 1014.2
20260510133004 70 316 1.7 6.1 0.00 0.00 0.00 53 1014.2
20260510132504 70 294 2.6 6.1 0.00 0.00 0.00 53 1014.2
20260510132007 69 265 1.7 5.2 0.00 0.00 0.00 54 1014.0
20260510131505 69 263 2.6 5.2 0.00 0.00 0.00 56 1014.0
20260510131004 69 263 0.9 5.2 0.00 0.00 0.00 59 1014.1
20260510130505 68 279 1.7 5.2 0.00 0.00 0.00 57 1014.1
20260510130009 68 286 0.9 6.1 0.00 0.00 0.00 60 1014.1
20260510125503 67 139 0.9 6.1 0.00 0.00 0.00 60 1014.2
20260510125006 67 263 2.6 5.2 0.00 0.00 0.00 60 1014.1
20260510124505 67 82 2.6 5.2 0.00 0.00 0.00 61 1014.2
20260510124010 66 250 1.7 5.2 0.00 0.00 0.00 63 1014.3
20260510123507 66 250 0.9 2.6 0.00 0.00 0.00 67 1014.3
20260510123010 65 250 0.9 2.6 0.00 0.00 0.00 67 1014.3
20260510122505 65 217 0.9 2.6 0.00 0.00 0.00 71 1014.2
20260510122011 64 205 0.9 2.6 0.00 0.00 0.00 72 1014.1
20260510121506 64 238 0.9 2.6 0.00 0.00 0.00 70 1014.1
20260510121009 64 244 0.9 2.6 0.00 0.00 0.00 71 1014.0
20260510120508 63 209 0.0 1.7 0.00 0.00 0.00 73 1013.9
20260510120007 63 192 0.9 1.7 0.00 0.00 0.00 76 1014.0
20260510115507 62 103 0.0 1.7 0.00 0.00 0.00 80 1013.9
20260510115002 60 236 0.0 1.7 0.00 0.00 0.00 81 1013.8
20260510114512 59 236 0.0 1.7 0.00 0.00 0.00 81 1013.8
20260510114010 58 236 0.0 1.7 0.00 0.00 0.00 82 1013.6
20260510113505 57 236 0.0 1.7 0.00 0.00 0.00 82 1013.6
20260510113014 57 244 0.9 1.7 0.00 0.00 0.00 82 1013.5
20260510112504 56 249 0.9 1.7 0.00 0.00 0.00 83 1013.5
20260510112003 55 261 1.7 2.6 0.00 0.00 0.00 84 1013.4
20260510111513 54 254 0.9 3.5 0.00 0.00 0.00 86 1013.4
20260510111006 53 311 1.7 3.5 0.00 0.00 0.00 87 1013.4
20260510110504 52 255 0.9 2.6 0.00 0.00 0.00 88 1013.3
20260510110011 52 254 0.9 2.6 0.00 0.00 0.00 87 1013.3
20260510105507 52 241 0.9 1.7 0.00 0.00 0.00 88 1013.3
20260510105003 52 238 1.7 1.7 0.00 0.00 0.00 88 1013.2
20260510104513 51 213 0.9 1.7 0.00 0.00 0.00 87 1013.1
20260510104009 52 215 0.9 1.7 0.00 0.00 0.00 87 1013.0
20260510103502 52 246 0.9 1.7 0.00 0.00 0.00 86 1012.9
20260510103012 52 240 0.9 1.7 0.00 0.00 0.00 86 1012.9
20260510102507 52 223 0.9 1.7 0.00 0.00 0.00 86 1012.7
20260510102003 52 250 0.9 1.7 0.00 0.00 0.00 86 1012.7
20260510101516 52 252 0.9 1.7 0.00 0.00 0.00 86 1012.5
20260510101008 52 265 0.9 1.7 0.00 0.00 0.00 85 1012.5
20260510100507 52 262 0.9 1.7 0.00 0.00 0.00 84 1012.4
20260510100015 53 259 0.9 1.7 0.00 0.00 0.00 84 1012.4
20260510095508 53 246 0.9 1.7 0.00 0.00 0.00 84 1012.4
20260510095002 54 266 0.9 1.7 0.00 0.00 0.00 83 1012.4
20260510094514 54 254 0.9 1.7 0.00 0.00 0.00 81 1012.3
20260510094007 55 251 0.9 1.7 0.00 0.00 0.00 81 1012.3
20260510093507 55 257 0.9 1.7 0.00 0.00 0.00 82 1012.3
20260510093016 54 252 0.9 1.7 0.00 0.00 0.00 82 1012.2
20260510092512 54 289 0.9 1.7 0.00 0.00 0.00 86 1012.1
20260510092002 53 283 0.9 1.7 0.00 0.00 0.00 87 1012.2
20260510091540 53 240 0.9 1.7 0.00 0.00 0.00 89 1012.2
20260510091007 53 230 0.9 1.7 0.00 0.00 0.00 90 1012.2
20260510090504 53 265 0.9 2.6 0.00 0.00 0.00 90 1012.2
20260510090020 53 245 0.9 2.6 0.00 0.00 0.00 91 1012.1
20260510085504 52 241 1.7 2.6 0.00 0.00 0.00 93 1012.1
20260510085007 52 252 0.9 1.7 0.00 0.00 0.00 92 1012.1
20260510084522 52 256 0.9 1.7 0.00 0.00 0.00 91 1012.0
20260510084002 52 244 0.9 1.7 0.00 0.00 0.00 91 1012.0
20260510083507 52 244 0.0 0.9 0.00 0.00 0.00 91 1012.0
20260510083023 52 244 0.0 0.9 0.00 0.00 0.00 91 1012.0
20260510082501 52 244 0.0 1.7 0.00 0.00 0.00 90 1012.0
20260510082006 53 240 0.9 1.7 0.00 0.00 0.00 90 1011.9
20260510081533 53 231 0.9 1.7 0.00 0.00 0.00 90 1011.9
20260510081003 53 251 0.9 1.7 0.00 0.00 0.00 90 1011.9
20260510080508 53 250 0.9 1.7 0.00 0.00 0.00 90 1011.8
20260510080022 53 250 0.9 1.7 0.00 0.00 0.00 90 1011.7
20260510075503 53 246 0.9 1.7 0.00 0.00 0.00 89 1011.7
20260510075006 54 231 0.9 1.7 0.00 0.00 0.00 90 1011.7
20260510074524 54 225 1.7 1.7 0.00 0.00 0.00 90 1011.7
20260510074007 54 229 0.9 1.7 0.00 0.00 0.00 90 1011.6
20260510073513 54 249 0.9 1.7 0.00 0.00 0.00 90 1011.6
20260510073035 54 238 0.9 1.7 0.00 0.00 0.00 89 1011.6
20260510072502 54 258 0.0 1.7 0.00 0.00 0.00 89 1011.5
20260510072007 54 227 0.0 1.7 0.00 0.00 0.00 89 1011.5
20260510071533 54 241 0.9 1.7 0.00 0.00 0.00 89 1011.4
20260510071006 54 259 0.9 1.7 0.00 0.00 0.00 88 1011.4
20260510070509 54 269 0.9 1.7 0.00 0.00 0.00 89 1011.3
20260510070032 54 236 0.9 1.7 0.00 0.00 0.00 88 1011.3
20260510065503 54 289 0.9 2.6 0.00 0.00 0.00 87 1011.3
20260510065009 55 263 0.9 2.6 0.00 0.00 0.00 87 1011.4
20260510064546 55 267 1.7 2.6 0.00 0.00 0.00 87 1011.3
20260510064004 55 266 0.9 1.7 0.00 0.00 0.00 86 1011.2
20260510063510 55 246 0.9 1.7 0.00 0.00 0.00 86 1011.2
20260510063038 56 275 0.9 1.7 0.00 0.00 0.00 85 1011.2
20260510062506 56 266 0.9 1.7 0.00 0.00 0.00 84 1011.3
20260510062009 56 242 0.9 1.7 0.00 0.00 0.00 85 1011.3
20260510061512 56 238 0.9 1.7 0.00 0.00 0.00 84 1011.3
20260510061007 57 237 0.9 1.7 0.00 0.00 0.00 84 1011.2
20260510060509 57 248 0.9 1.7 0.00 0.00 0.00 84 1011.2
20260510060024 57 250 0.9 1.7 0.00 0.00 0.00 83 1011.2
20260510055507 57 256 0.9 1.7 0.00 0.00 0.00 83 1011.1
20260510055007 57 273 0.9 1.7 0.00 0.00 0.00 1011.2
20260510054508 57 269 0.9 1.7 0.00 0.00 0.00 81 1011.2
20260510054006 58 260 0.9 1.7 0.00 0.00 0.00 81 1011.2
20260510053513 58 265 0.9 2.6 0.00 0.00 0.00 80 1011.2
20260510053011 58 243 0.9 3.5 0.00 0.00 0.00 79 1011.2
20260510052506 59 265 0.9 3.5 0.00 0.00 0.00 79 1011.2
20260510052012 59 259 1.7 2.6 0.00 0.00 0.00 79 1011.2
20260510051513 59 249 0.9 2.6 0.00 0.00 0.00 78 1011.2
20260510051007 60 260 0.9 2.6 0.00 0.00 0.00 77 1011.2
20260510050509 60 227 0.9 2.6 0.00 0.00 0.00 77 1011.3
20260510050014 60 258 0.9 2.6 0.00 0.00 0.00 77 1011.2
20260510045510 60 254 0.9 2.6 0.00 0.00 0.00 77 1011.2
20260510045015 60 256 0.9 3.5 0.00 0.00 0.00 76 1011.2
20260510044514 60 264 1.7 3.5 0.00 0.00 0.00 76 1011.2
20260510044011 60 232 1.7 3.5 0.00 0.00 0.00 76 1011.2
20260510043504 60 248 1.7 6.1 0.00 0.00 0.00 76 1011.1
20260510043014 60 274 2.6 6.1 0.00 0.00 0.00 76 1011.1
20260510042503 60 276 1.7 6.1 0.00 0.00 0.00 76 1011.1
20260510042005 60 262 1.7 4.3 0.00 0.00 0.00 76 1011.1
20260510041518 60 267 0.9 2.6 0.00 0.00 0.00 76 1011.1
20260510041005 60 242 0.9 3.5 0.00 0.00 0.00 75 1011.1
20260510040504 60 261 0.9 3.5 0.00 0.00 0.00 75 1011.1
20260510040021 60 244 0.9 3.5 0.00 0.00 0.00 76 1011.2
20260510035503 59 254 0.9 1.7 0.00 0.00 0.00 77 1011.2
20260510035003 59 273 0.9 1.7 0.00 0.00 0.00 78 1011.3
20260510034503 59 266 0.9 1.7 0.00 0.00 0.00 78 1011.2
20260510034005 59 263 0.9 2.6 0.00 0.00 0.00 78 1011.2
20260510033506 59 276 0.9 2.6 0.00 0.00 0.00 78 1011.2
20260510033003 59 279 0.9 1.7 0.00 0.00 0.00 77 1011.1
20260510032505 59 279 0.0 1.7 0.00 0.00 0.00 77 1011.0
20260510032007 59 279 0.9 1.7 0.00 0.00 0.00 77 1010.9
20260510031503 59 259 0.0 3.5 0.00 0.00 0.00 1010.8
20260510031003 59 252 0.0 3.5 0.00 0.00 0.00 1010.7
20260510030504 59 257 0.9 3.5 0.00 0.00 0.00 77 1010.8
20260510030004 59 252 0.0 1.7 0.00 0.00 0.00 77 1010.8
20260510025504 59 274 0.9 1.7 0.00 0.00 0.00 77 1010.8
20260510025004 59 239 0.9 0.9 0.00 0.00 0.00 76 1010.7
20260510024504 59 228 0.9 0.9 0.00 0.00 0.00 76 1010.7
20260510024003 59 256 0.9 1.7 0.00 0.00 0.00 75 1010.6
20260510023507 60 274 0.0 1.7 0.00 0.00 0.00 75 1010.5
20260510023004 60 274 0.0 1.7 0.00 0.00 0.00 74 1010.6
20260510022503 60 274 0.0 1.7 0.00 0.00 0.00 74 1010.5
20260510022007 60 226 0.0 16.5 0.00 0.00 0.00 72 1010.4
20260510021506 61 226 0.0 16.5 0.00 0.00 0.00 72 1010.4
20260510021006 61 226 0.0 1.7 0.00 0.00 0.00 72 1010.4
20260510020506 61 226 0.0 1.7 0.00 0.00 0.00 72 1010.3
20260510020006 61 226 0.9 1.7 0.00 0.00 0.00 72 1010.2
20260510015503 61 259 0.0 1.7 0.00 0.00 0.00 72 1010.2
20260510015007 61 259 0.0 1.7 0.00 0.00 0.00 73 1010.1
20260510014506 61 231 0.9 1.7 0.00 0.00 0.00 73 1010.0
20260510014003 61 252 0.9 1.7 0.00 0.00 0.00 73 1010.0
20260510013507 61 256 0.9 1.7 0.00 0.00 0.00 72 1009.9
20260510013006 61 269 0.9 1.7 0.00 0.00 0.00 71 1009.9
20260510012505 61 254 0.0 0.9 0.00 0.00 0.00 72 1009.6
20260510012007 62 238 0.9 1.7 0.00 0.00 0.00 71 1009.7
20260510011508 62 238 0.0 1.7 0.00 0.00 0.00 70 1009.6
20260510011007 62 238 0.0 1.7 0.00 0.00 0.00 69 1009.6
20260510010502 63 238 0.9 0.9 0.00 0.00 0.00 69 1009.5
20260510010007 63 237 0.0 1.7 0.00 0.00 0.00 68 1009.4
20260510005505 64 229 0.0 1.7 0.00 0.00 0.00 67 1009.5
20260510005001 64 229 0.0 1.7 0.00 0.00 0.00 66 1009.4
20260510004507 64 253 0.0 1.7 0.00 0.00 0.00 66 1009.4
20260510004013 64 253 0.0 1.7 0.00 0.00 0.00 65 1009.3
20260510003505 65 253 0.0 0.9 0.00 0.00 0.00 65 1009.2
20260510003008 65 253 0.9 0.9 0.00 0.00 0.00 64 1009.1
20260510002506 66 253 0.9 1.7 0.00 0.00 0.00 62 1009.1
20260510002002 67 253 0.0 1.7 0.00 0.00 0.00 61 1009.0
20260510001512 68 253 0.0 1.7 0.00 0.00 0.00 59 1009.0
20260510001006 69 253 0.0 1.7 0.00 0.00 0.00 58 1009.0
20260510000504 69 253 0.0 1.7 0.00 0.00 0.00 57 1009.0
20260510000011 70 253 0.0 1.7 0.00 0.00 0.00 55 1009.0
20260509235509 70 253 0.0 1.7 0.00 0.00 0.00 54 1008.9
20260509235003 71 253 0.0 1.7 0.00 0.00 0.00 54 1008.8
20260509234526 71 253 0.0 2.6 0.00 0.00 0.00 51 1008.8
20260509234006 72 231 0.0 3.5 0.00 0.00 0.00 52 1008.8
20260509233503 72 246 0.0 3.5 0.00 0.00 0.00 51 1008.8
20260509233029 72 246 0.9 3.5 0.00 0.00 0.00 49 1008.7
20260509232506 73 240 0.9 2.6 0.00 0.00 0.00 49 1008.7
20260509232002 73 212 1.7 2.6 0.00 0.00 0.00 48 1008.7
20260509231516 74 254 1.7 2.6 0.00 0.00 0.00 47 1008.7
20260509231006 74 290 0.9 3.5 0.00 0.00 0.00 47 1008.8
20260509230503 74 280 1.7 5.2 0.00 0.00 0.00 46 1008.8
20260509230016 74 222 2.6 5.2 0.00 0.00 0.00 46 1008.8
20260509225510 75 258 1.7 6.1 0.00 0.00 0.00 46 1008.8
20260509225004 75 263 2.6 6.1 0.00 0.00 0.00 45 1008.8
20260509224524 75 253 2.6 11.3 0.00 0.00 0.00 45 1008.6
20260509224011 75 243 2.6 11.3 0.00 0.00 0.00 45 1008.6
20260509223505 75 161 3.5 11.3 0.00 0.00 0.00 46 1008.7
20260509223019 75 222 2.6 8.7 0.00 0.00 0.00 47 1008.7
20260509222508 75 298 1.7 7.0 0.00 0.00 0.00 47 1008.7
20260509222004 74 192 2.6 7.8 0.00 0.00 0.00 48 1008.6
20260509221520 73 217 3.5 7.8 0.00 0.00 0.00 49 1008.7
20260509221002 73 203 1.7 6.1 0.00 0.00 0.00 49 1008.7
20260509220504 73 193 2.6 7.8 0.00 0.00 0.00 48 1008.7
20260509220025 74 254 3.5 7.8 0.00 0.00 0.00 48 1008.7
20260509215503 74 250 1.7 8.7 0.00 0.00 0.00 47 1008.7
20260509215004 74 309 4.3 8.7 0.00 0.00 0.00 47 1008.8
20260509214522 74 242 5.2 8.7 0.00 0.00 0.00 47 1008.7
20260509214003 75 298 4.3 9.6 0.00 0.00 0.00 45 1008.6
20260509213508 76 223 2.6 11.3 0.00 0.00 0.00 44 1008.6
20260509213025 77 302 5.2 11.3 0.00 0.00 0.00 42 1008.7
20260509212504 77 301 2.6 12.2 0.00 0.00 0.00 43 1008.7
20260509212013 76 171 2.6 14.8 0.00 0.00 0.00 42 1008.5
20260509211523 76 271 4.3 14.8 0.00 0.00 0.00 43 1008.6
20260509211004 76 292 3.5 11.3 0.00 0.00 0.00 43 1008.5
20260509210506 76 196 6.1 14.8 0.00 0.00 0.00 42 1008.5
20260509210026 76 240 6.1 14.8 0.00 0.00 0.00 42 1008.4
20260509205504 77 274 4.3 11.3 0.00 0.00 0.00 44 1008.4
20260509205009 76 213 4.3 12.2 0.00 0.00 0.00 44 1008.4
20260509204527 75 302 5.2 12.2 0.00 0.00 0.00 45 1008.5
20260509204009 74 188 3.5 8.7 0.00 0.00 0.00 45 1008.5
20260509203507 74 230 2.6 8.7 0.00 0.00 0.00 46 1008.5
20260509203033 74 261 2.6 13.9 0.00 0.00 0.00 46 1008.5
20260509202506 75 227 6.1 13.9 0.00 0.00 0.00 45 1008.5
20260509202009 75 203 5.2 11.3 0.00 0.00 0.00 44 1008.5
20260509201526 76 331 2.6 11.3 0.00 0.00 0.00 45 1008.5
20260509201008 76 277 4.3 10.4 0.00 0.00 0.00 45 1008.4
20260509200510 75 234 2.6 11.3 0.00 0.00 0.00 46 1008.5
20260509200008 75 277 5.2 11.3 0.00 0.00 0.00 46 1008.5
20260509195506 74 250 4.3 10.4 0.00 0.00 0.00 46 1008.5
20260509195012 74 229 3.5 11.3 0.00 0.00 0.00 47 1008.7
20260509194509 75 261 5.2 11.3 0.00 0.00 0.00 48 1008.7
20260509194005 74 198 3.5 8.7 0.00 0.00 0.00 50 1008.9
20260509193509 73 177 2.6 8.7 0.00 0.00 0.00 48 1008.9
20260509193010 73 239 3.5 12.2 0.00 0.00 0.00 50 1009.0
20260509192506 73 227 5.2 12.2 0.00 0.00 0.00 49 1009.0
20260509192012 74 205 2.6 11.3 0.00 0.00 0.00 48 1009.1
20260509191515 75 176 5.2 11.3 0.00 0.00 0.00 50 1009.2
20260509191009 75 284 3.5 8.7 0.00 0.00 0.00 49 1009.3
20260509190511 74 350 4.3 11.3 0.00 0.00 0.00 50 1009.4
20260509190017 73 283 6.1 11.3 0.00 0.00 0.00 50 1009.6
20260509185507 72 277 4.3 9.6 0.00 0.00 0.00 52 1009.6
20260509185009 72 217 4.3 7.8 0.00 0.00 0.00 52 1009.7
20260509184521 72 281 3.5 10.4 0.00 0.00 0.00 51 1009.7
20260509184009 72 271 1.7 11.3 0.00 0.00 0.00 51 1009.8
20260509183508 73 227 3.5 11.3 0.00 0.00 0.00 50 1009.8
20260509183027 73 271 5.2 10.4 0.00 0.00 0.00 48 1009.7
20260509182507 73 287 4.3 13.9 0.00 0.00 0.00 49 1009.9
20260509182010 73 277 5.2 13.9 0.00 0.00 0.00 50 1009.9
20260509181518 73 313 5.2 16.5 0.00 0.00 0.00 52 1010.0
20260509181007 72 280 8.7 16.5 0.00 0.00 0.00 50 1010.1
20260509180507 72 295 5.2 13.0 0.00 0.00 0.00 52 1010.2
20260509180021 71 236 5.2 14.8 0.00 0.00 0.00 54 1010.2
20260509175517 71 292 4.3 14.8 0.00 0.00 0.00 54 1010.3
20260509175010 71 255 5.2 14.8 0.00 0.00 0.00 54 1010.4
20260509174520 71 303 6.1 11.3 0.00 0.00 0.00 57 1010.4
20260509174010 69 323 3.5 8.7 0.00 0.00 0.00 60 1010.5
20260509173506 69 221 2.6 8.7 0.00 0.00 0.00 61 1010.6
20260509173026 69 277 3.5 11.3 0.00 0.00 0.00 60 1010.6
20260509172510 69 224 3.5 11.3 0.00 0.00 0.00 60 1010.6
20260509172004 70 265 1.7 8.7 0.00 0.00 0.00 60 1010.5
20260509171528 69 219 1.7 9.6 0.00 0.00 0.00 59 1010.6
20260509171014 69 244 5.2 9.6 0.00 0.00 0.00 58 1010.7
20260509170504 70 289 3.5 13.0 0.00 0.00 0.00 58 1010.7
20260509170022 70 250 5.2 13.0 0.00 0.00 0.00 56 1010.8
20260509165510 70 153 2.6 11.3 0.00 0.00 0.00 57 1010.7
20260509165003 70 269 2.6 11.3 0.00 0.00 0.00 58 1010.9
20260509164521 70 225 4.3 9.6 0.00 0.00 0.00 57 1010.8
20260509164011 69 298 4.3 11.3 0.00 0.00 0.00 59 1010.9
20260509163507 68 225 6.1 11.3 0.00 0.00 0.00 60 1011.0
20260509163004 68 219 3.5 10.4 0.00 0.00 0.00 61 1011.0
20260509162504 67 325 3.5 10.4 0.00 0.00 0.00 61 1011.0
20260509162006 67 259 4.3 13.0 0.00 0.00 0.00 60 1011.1
20260509161507 67 213 4.3 13.0 0.00 0.00 0.00 60 1011.0
20260509161007 67 250 7.0 13.0 0.00 0.00 0.00 60 1011.1
20260509160508 68 282 6.1 13.0 0.00 0.00 0.00 60 1011.0
20260509160006 67 266 4.3 11.3 0.00 0.00 0.00 62 1011.2
20260509155504 67 288 5.2 13.9 0.00 0.00 0.00 61 1011.2
20260509155009 67 311 5.2 13.9 0.00 0.00 0.00 60 1011.2
20260509154503 67 270 3.5 13.0 0.00 0.00 0.00 61 1011.2
20260509154006 67 297 6.1 13.0 0.00 0.00 0.00 59 1011.2